Location: Arrodets-la-Barthe
(43.0306°N, 0.2829°E)
Time: 01:22:54
(UTC+00:00)

Cosmos 2344 - Pass Details

Date: 31 May 2022
Orbit: 1228 x 3015 km, 63.3° (Epoch: 04 July)

Event Time Altitude Azimuth Distance (km) Brightness Sun altitude
Rises 21:50:20 0° 259° (W) 4,209 6.6 -18.8°
Reaches altitude 10° 21:53:33 10° 271° (W) 3,194 6.1 -19.1°
Maximum altitude 21:59:48 29° 330° (NNW) 2,136 5.5 -19.6°
Drops below altitude 10° 22:06:35 10° 29° (NNE) 3,469 6.3 -20.2°
Sets 22:10:17 0° 41° (NE) 4,639 6.8 -20.5°
